Terminal Aerodrome Forecast
Issued by NWS Twin Cities, MN

Home | Current Version | Previous Version | Graphics & Text | Print | Product List | Glossary On
Versions: 1 2 3 4 5 6 7 8 9 10 11 12 13 14 15 16 17 18 19 20 21 22 23 24 25 26 27 28
000
FTUS43 KMPX 270852 AAA
TAFMSP
TAF AMD
KMSP 270852Z 2709/2812 08012KT P6SM BKN120 OVC250
     FM271200 08015G22KT P6SM SCT050 BKN120
     FM272200 08019G28KT 6SM -RA BR BKN035 OVC100
      TEMPO 2800/2804 3SM RA BR OVC020
     FM280400 06015G23KT P6SM -RA OVC030=

USA.gov is the U.S. government's official web portal to all federal, state and local government web resources and services.